This demonstration page uses our WeatherBlox Daily Observations layout. Learn more.

Left ArrowRight Arrow

47.50024, -111.30081

Hourly Observations for May 19, 2019

Temp ( °F °C ) Dew Point ( °F °C ) Humidity (%) Winds ( mph kmh ) Pressure ( in mb ) Visibility ( mi km ) Precip ( " mm )
12:53 am 00:53 Cloudy with Light Rain 36 2.2 34 1.1 93 93 E 16 26 30.12 1020 10 16 0.01 0.25
1:06 am 01:06 Cloudy with Light Rain 36 2.2 34 1.1 93 93 E 15 24 30.12 1020 10 16 0.00 0.03
1:35 am 01:35 Cloudy with Light Rain 36 2.2 34 1.1 93 93 E 12 19 30.11 1020 10 16 0.00 0.03
1:53 am 01:53 Cloudy 35 1.7 33 0.6 93 93 E 12 19 30.11 1020 10 16 0.00 0.03
2:53 am 02:53 Partly Cloudy 34 1.1 33 0.6 97 97 ESE 12 19 30.10 1019 10 16 0.00 0.00
3:53 am 03:53 Cloudy 34 1.1 33 0.6 97 97 SE 6 9 30.09 1019 10 16 0.00 0.00
4:34 am 04:34 Cloudy 34 1.1 32 0 92 92 ESE 9 15 30.10 1019 10 16 0.00 0.00
4:51 am 04:51 Partly Cloudy 34 1 30 -1 87 87 E 8 13 30.11 1020 10 16 0.00 0.00
4:53 am 04:53 Partly Cloudy 34 1.1 31 -0.6 89 89 E 8 13 30.09 1019 10 16 0.00 0.00
5:53 am 05:53 Mostly Cloudy 33 0.6 32 0 96 96 ENE 12 19 30.10 1019 10 16 0.00 0.00
6:53 am 06:53 Mostly Cloudy 34 1.1 32 0 92 92 E 9 15 30.09 1019 10 16 0.00 0.00
7:44 am 07:44 Mostly Sunny 36 2.2 33 0.6 89 89 E 10 17 30.08 1019 10 16 0.00 0.00
7:53 am 07:53 Mostly Sunny 36 2.2 33 0.6 89 89 ESE 10 17 30.08 1019 10 16 0.00 0.00
8:53 am 08:53 Partly Cloudy 38 3.3 34 1.1 86 86 E 9 15 30.08 1019 10 16 0.00 0.00
9:53 am 09:53 Mostly Cloudy 42 5.6 35 1.7 76 76 VRB 7 11 30.06 1018 10 16 0.00 0.00
10:53 am 10:53 Mostly Cloudy 45 7.2 34 1.1 66 66 E 18 30 30.04 1017 10 16 0.00 0.00
11:53 am 11:53 Cloudy 46 7.8 32 0 58 58 E 22 35 30.03 1017 10 16 0.00 0.00
12:53 pm 12:53 Cloudy 46 7.8 32 0 58 58 E 21 33 30.03 1017 10 16 0.00 0.00
1:53 pm 13:53 Cloudy 47 8.3 33 0.6 59 59 E 22 35 30.03 1017 10 16 0.00 0.00
2:53 pm 14:53 Mostly Cloudy 49 9.4 33 0.6 55 55 E 21 33 30.01 1016 10 16 0.00 0.00
3:53 pm 15:53 Mostly Cloudy 50 10 33 0.6 52 52 ENE 22 35 30.00 1016 10 16 0.00 0.00
4:53 pm 16:53 Mostly Sunny 47 8.3 32 0 56 56 E 21 33 30.00 1016 10 16 0.00 0.00
5:53 pm 17:53 Mostly Sunny 46 7.8 31 -0.6 56 56 E 22 35 30.00 1016 10 16 0.00 0.00
6:53 pm 18:53 Cloudy 45 7.2 30 -1.1 56 56 E 20 31 30.01 1016 10 16 0.00 0.00
7:53 pm 19:53 Cloudy 44 6.7 30 -1.1 58 58 E 21 33 30.01 1016 10 16 0.00 0.00
8:53 pm 20:53 Cloudy 43 6.1 30 -1.1 60 60 E 16 26 30.01 1016 10 16 0.00 0.00
9:53 pm 21:53 Cloudy 42 5.6 30 -1.1 62 62 E 20 31 30.01 1016 10 16 0.00 0.00
10:53 pm 22:53 Cloudy 42 5.6 31 -0.6 65 65 E 14 22 30.00 1016 10 16 0.00 0.00
11:53 pm 23:53 Cloudy 41 5 31 -0.6 67 67 E 14 22 29.99 1016 10 16 0.00 0.00

Powered by AerisWeather